Wind_Speed
10 8 8 9 7 6 5 4 5 2 2 4 4 4 3 2 1 4 4 2 4 3 4 5 5 4 5 6 10 13 14 13 13 14 15 16 16 17 16 16 16 16 15 15 15 14 14 13 12 11 11 12 12 12 13 13 13 13 13 14 13 14 14 15 15 14 14 14 14 14 13 13 13 14 14 12 11 10 10 13 14 12 11 11 10 10
8 8 8 8 4 1 1 3 4 4 6 6 4 4 3 2 3 5 5 2 1 2 2 4 4 5 5 7 10 13 13 14 15 15 16 17 17 16 17 17 17 16 16 16 15 14 14 13 13 11 11 12 13 14 14 13 13 13 13 15 15 15 15 15 16 16 15 14 14 13 12 12 12 13 12 11 10 10 11 13 13 11 11 10 10 9
7 8 6 5 3 1 2 3 4 5 6 6 4 4 3 2 2 3 3 3 2 2 1 3 3 3 3 5 9 13 14 13 15 15 15 16 17 17 17 18 18 18 17 16 16 15 14 14 13 12 11 12 13 13 14 14 14 14 14 16 16 15 15 15 15 16 16 16 15 13 12 11 11 11 10 10 11 11 10 12 13 12 11 10 9 8
6 6 4 5 4 5 6 5 5 6 6 5 3 4 2 3 4 2 2 3 3 1 0 3 2 2 2 2 6 11 13 12 13 14 14 15 16 17 18 18 19 20 18 17 17 16 15 14 14 13 12 12 13 13 15 15 15 15 15 16 17 15 15 15 15 16 16 16 16 14 13 13 11 11 11 12 12 12 12 12 12 12 11 10 9 8
3 3 4 5 6 7 8 6 7 7 6 4 3 4 1 2 7 4 2 2 4 2 2 3 1 1 3 5 6 7 10 12 13 15 14 15 16 16 17 18 20 20 19 18 18 17 16 15 14 13 13 13 13 14 15 16 15 15 16 16 16 16 15 15 15 16 16 16 15 14 14 13 12 12 12 12 11 12 12 11 11 11 11 10 9 9
3 5 4 6 7 8 8 7 7 6 7 5 4 1 4 1 8 4 1 3 3 3 5 5 1 1 4 8 7 5 8 11 12 15 16 16 16 16 16 17 19 20 19 18 17 17 17 16 15 14 14 14 13 14 15 15 15 15 15 16 16 16 15 15 15 16 16 15 14 13 13 13 13 12 12 11 10 11 11 10 10 10 11 11 10 9
3 6 5 6 7 9 9 9 7 5 8 5 5 5 6 1 8 3 3 5 2 1 4 6 4 1 3 8 9 8 10 11 11 14 16 17 17 18 17 17 19 20 20 19 17 17 17 16 15 15 15 15 14 14 14 15 15 15 16 16 16 16 16 16 16 16 15 15 15 14 13 13 12 11 11 11 10 10 10 9 10 10 11 11 10 8
5 7 8 8 7 8 8 8 7 7 9 3 5 4 4 1 6 3 3 5 2 2 3 6 5 2 3 6 8 11 13 12 13 14 15 17 18 19 19 18 19 20 21 20 19 18 17 16 16 16 15 15 14 14 15 15 15 16 16 16 16 16 16 17 17 17 16 15 15 15 14 13 12 10 11 12 10 9 10 9 9 9 9 10 10 8
7 10 10 10 9 7 6 6 4 6 8 1 3 2 4 3 4 5 4 4 1 2 3 6 6 4 3 4 7 11 13 14 16 15 15 18 20 20 20 20 20 20 21 21 20 19 18 17 16 16 15 15 15 14 15 16 16 16 17 16 16 17 17 17 18 18 17 15 15 15 14 13 12 10 10 12 10 10 11 10 10 9 9 9 9 8
4 7 7 9 9 7 7 5 2 6 6 1 3 3 5 5 5 6 5 4 2 4 5 7 10 5 3 5 7 9 13 14 15 14 16 19 21 21 22 21 20 21 21 21 20 19 18 18 16 15 15 16 15 15 15 16 16 16 17 17 17 17 17 17 18 18 17 15 14 15 15 13 13 12 11 11 10 11 11 10 10 10 9 8 7 7
3 4 3 7 8 6 5 3 3 7 5 3 5 5 5 5 4 6 5 3 4 5 2 6 12 8 3 5 8 8 10 13 14 13 16 19 21 22 22 22 21 21 22 21 20 19 19 18 16 15 16 16 16 15 15 16 16 16 17 18 18 17 17 17 18 19 17 16 15 16 15 14 13 13 12 12 11 11 11 11 10 9 9 8 7 7
7 8 6 8 10 8 5 4 5 6 6 6 7 6 4 3 3 6 4 4 6 4 3 5 10 9 5 3 7 8 8 12 16 14 15 19 21 22 22 22 22 22 22 21 20 20 19 18 16 15 16 17 17 16 16 16 17 17 17 19 19 19 18 17 18 19 18 17 16 16 16 14 13 13 13 12 12 11 11 11 10 10 10 9 9 9
8 9 8 9 10 10 9 7 6 6 8 8 7 6 5 4 4 5 4 5 5 1 4 4 7 7 7 4 6 9 10 13 17 16 17 21 23 23 23 23 22 22 22 22 21 20 19 18 17 16 17 18 18 18 17 17 17 17 18 19 20 20 19 18 18 19 19 19 18 17 16 15 14 13 13 12 12 12 12 11 11 10 10 10 10 9
4 6 9 9 8 12 12 7 5 6 7 8 7 7 7 5 5 6 5 5 4 2 4 4 5 5 6 5 5 10 12 15 20 20 20 23 24 24 24 24 23 22 22 22 22 21 20 19 18 18 19 19 20 19 18 18 17 17 18 20 21 21 20 19 18 19 19 19 19 18 17 16 15 14 13 13 12 11 11 11 11 10 9 10 9 9
3 3 8 7 6 12 15 9 7 7 7 8 7 8 8 6 6 6 3 3 3 2 4 4 4 4 3 3 4 4 9 14 19 20 19 21 23 24 24 24 24 23 23 22 22 21 21 20 19 19 20 20 20 20 19 18 18 18 19 20 22 22 21 20 19 19 19 18 19 18 18 18 17 15 13 13 12 11 11 11 10 10 10 9 9 9
4 2 5 4 3 9 14 11 9 8 7 7 7 8 8 6 6 5 4 4 3 2 3 4 4 3 1 5 5 2 4 9 15 18 17 17 20 22 23 24 24 24 23 23 22 21 21 21 20 20 20 20 20 20 20 19 20 20 19 21 22 21 21 20 19 19 18 18 18 18 18 19 18 16 14 13 13 12 12 11 10 11 10 10 9 10
4 2 5 2 4 8 11 10 10 10 6 3 6 9 6 3 5 6 6 5 5 5 3 3 4 3 4 4 2 1 4 8 12 15 17 17 18 20 22 23 24 24 24 23 23 21 21 21 21 21 21 20 20 21 21 21 21 21 21 21 22 22 21 20 20 19 18 17 17 18 18 18 17 16 15 13 13 12 11 11 11 10 10 10 10 9
3 2 3 0 2 5 7 8 10 11 8 4 5 7 5 3 5 5 5 5 6 6 3 3 4 3 3 2 2 2 5 8 10 12 15 17 18 19 20 21 23 24 23 23 23 22 21 21 21 21 21 20 20 21 22 22 21 21 21 21 22 23 22 21 20 19 18 18 17 17 18 18 17 16 14 13 12 11 11 12 11 10 9 9 9 9
3 3 3 3 4 2 4 8 7 9 10 7 3 2 4 5 5 5 5 5 5 5 3 3 4 1 2 1 2 2 3 6 10 12 13 15 18 19 20 21 22 23 23 22 23 23 22 22 22 22 21 21 21 21 22 22 20 20 20 20 21 22 21 20 19 19 19 18 18 17 17 18 17 16 15 13 12 11 11 11 10 10 10 9 9 10
2 4 1 5 6 4 4 7 6 8 8 5 3 3 4 4 4 4 3 4 3 2 1 2 3 3 3 3 3 3 1 4 9 12 13 17 20 20 20 21 22 23 24 23 23 23 23 23 22 22 22 22 22 21 20 20 20 19 20 20 20 20 20 20 19 19 19 18 18 17 17 18 17 17 16 15 14 13 12 11 11 10 10 10 10 10
2 4 3 5 6 3 5 4 6 5 7 7 5 5 5 3 3 3 4 4 3 2 1 2 2 3 4 3 5 4 3 3 7 10 12 18 22 21 21 21 21 23 24 23 23 22 22 23 22 21 22 22 22 21 20 20 20 19 19 19 20 19 19 20 19 19 19 18 18 18 18 18 17 17 16 15 15 14 13 12 12 11 11 10 10 11
3 4 5 2 3 4 4 4 8 5 5 6 4 4 6 5 5 5 6 5 3 2 1 1 4 1 3 4 5 5 4 3 6 9 12 16 21 21 20 19 21 24 24 22 23 22 22 22 22 21 21 21 21 21 20 20 20 20 19 19 20 20 20 20 19 19 19 18 18 18 17 17 17 17 16 15 15 14 14 13 13 12 12 11 11 11
3 4 6 5 3 1 3 5 7 3 2 2 3 4 7 3 3 6 4 3 3 1 1 2 5 2 3 4 6 5 4 2 4 9 11 14 19 19 18 19 23 27 27 24 22 22 22 21 21 21 21 21 22 22 21 21 20 21 21 21 20 20 20 20 20 19 19 19 19 18 17 16 16 16 16 16 15 14 14 13 13 13 13 12 11 11
1 4 5 5 3 2 4 4 3 3 4 2 1 5 4 0 2 5 3 2 3 2 1 4 5 1 3 4 6 6 5 4 3 7 10 12 16 17 18 20 24 27 28 25 20 20 21 20 20 20 20 21 22 23 22 23 23 23 23 22 20 19 19 19 19 18 19 20 19 18 17 17 16 16 16 16 15 15 14 14 13 13 13 13 12 11
1 4 4 5 4 3 5 3 2 4 5 3 2 2 0 1 4 5 3 3 5 3 3 7 4 2 2 3 5 6 6 7 7 6 8 11 13 17 19 20 21 24 27 24 20 18 19 19 20 20 21 22 23 23 23 23 24 24 23 21 20 19 18 18 18 19 19 19 18 18 18 17 16 17 16 16 16 15 15 15 14 13 13 13 13 12
2 3 2 4 5 6 5 2 3 5 5 5 3 4 2 0 4 6 3 4 6 2 2 7 3 2 2 3 5 6 6 7 8 7 6 7 10 16 20 21 20 20 22 23 20 18 18 18 19 20 21 23 23 22 22 23 23 23 22 20 19 19 18 18 18 19 19 18 17 18 18 18 17 17 17 17 16 15 15 15 15 14 14 13 13 13
2 0 1 1 1 5 5 1 4 6 4 3 3 3 3 3 3 7 6 6 5 1 3 6 4 1 2 4 5 5 6 7 7 7 5 4 6 11 18 23 24 20 20 21 20 17 17 17 18 20 22 23 22 20 21 22 22 22 21 20 20 19 19 19 18 18 18 17 17 17 17 18 18 18 17 17 16 16 15 15 15 15 14 13 13 13
2 1 0 3 5 5 4 1 3 4 3 3 3 3 4 3 4 8 10 6 2 2 4 2 3 3 3 6 5 5 6 6 7 8 6 3 2 6 13 19 22 22 21 19 17 17 17 17 17 18 20 21 21 19 20 21 22 22 21 20 21 20 21 21 19 19 18 17 18 17 16 17 18 18 18 17 17 16 15 14 15 15 14 14 13 13
3 2 2 1 5 6 5 3 2 2 3 4 3 3 3 2 3 6 11 8 2 5 5 4 4 2 5 5 4 5 5 6 7 8 7 6 4 2 8 14 17 19 19 17 15 15 15 16 16 15 15 16 16 16 17 18 19 21 22 22 22 21 21 22 21 20 20 19 19 18 16 16 17 18 18 18 18 17 16 15 14 14 14 14 13 13
3 2 3 3 2 3 3 3 1 2 2 2 2 2 4 1 1 2 7 9 7 9 11 9 5 2 6 4 4 5 5 6 8 8 9 9 8 6 5 10 14 15 15 13 12 11 10 11 12 11 10 11 12 13 14 14 16 18 19 20 22 22 21 22 22 21 20 20 19 18 17 17 17 18 18 17 17 16 16 15 14 14 14 14 13 13
3 2 5 4 2 3 5 4 2 3 2 1 2 3 5 3 2 2 2 4 5 9 12 12 8 4 4 3 6 9 10 11 10 10 11 10 9 10 11 12 13 12 13 12 11 10 10 9 9 9 8 8 9 11 13 14 16 17 17 18 20 21 21 21 22 22 21 20 19 18 18 18 17 18 18 17 16 16 16 16 16 16 16 14 14 14
3 2 5 3 1 3 6 6 5 4 1 1 3 4 4 3 3 3 3 3 3 5 8 11 9 5 5 6 10 13 14 14 13 12 11 11 10 9 9 11 13 12 12 12 11 11 11 10 9 8 6 7 8 10 11 12 14 17 18 20 20 19 18 19 20 21 21 20 19 18 18 18 18 18 18 18 17 16 15 16 16 17 18 16 14 14
3 2 4 4 3 4 6 7 7 5 3 2 2 5 4 3 2 2 2 3 5 5 4 9 6 6 8 8 10 11 12 13 13 13 13 12 12 9 9 10 9 9 9 9 10 10 9 8 6 5 4 6 9 11 13 12 12 13 15 18 20 20 19 19 19 21 20 20 18 17 17 17 17 17 17 17 17 17 16 16 16 16 17 16 15 14
3 3 1 2 3 4 5 6 7 6 5 1 4 5 4 3 2 2 2 4 6 4 4 8 3 9 9 9 11 12 13 15 14 14 14 13 13 12 11 11 9 8 7 7 7 7 6 6 6 5 4 6 9 11 14 15 14 13 12 14 17 17 18 18 18 20 20 19 17 15 15 15 15 16 16 16 15 16 17 17 16 16 16 16 16 16
4 4 2 2 3 2 2 5 7 5 2 1 4 4 3 4 2 2 2 3 4 4 6 6 4 11 11 13 15 16 18 18 16 16 16 13 13 12 11 11 10 10 9 8 6 4 4 5 5 5 5 8 10 10 10 12 14 13 13 14 14 14 16 16 16 18 18 17 16 15 15 14 14 14 14 14 13 14 16 17 17 16 16 16 16 17
5 4 2 2 3 2 2 4 5 2 1 2 3 2 1 2 1 2 1 2 3 2 4 2 5 11 13 15 16 15 17 18 17 17 16 13 12 12 10 9 10 11 11 9 7 6 6 6 6 6 6 8 10 8 6 8 11 11 11 12 13 14 14 14 14 14 14 14 14 14 14 14 13 13 13 12 12 12 14 16 16 16 16 16 17 17
5 4 3 3 2 3 4 3 1 2 4 4 3 2 1 2 2 1 2 1 2 2 3 2 5 11 12 13 14 13 13 14 14 14 13 11 11 12 12 10 10 12 12 10 8 6 5 6 6 6 5 5 7 8 8 9 9 10 11 10 11 12 13 13 14 13 13 14 14 14 14 13 12 12 13 13 12 11 11 11 12 14 15 16 16 17
4 3 4 4 2 2 5 4 2 3 4 3 3 5 5 5 6 5 2 1 1 3 7 8 1 9 11 9 11 12 8 8 8 8 9 9 9 11 13 12 12 13 12 10 8 6 4 5 6 6 5 3 3 5 9 11 10 10 10 10 9 10 11 11 12 13 13 13 13 13 13 12 11 12 12 12 12 12 11 11 11 13 14 15 16 17
4 4 4 5 4 3 5 5 3 2 1 4 5 6 7 7 7 4 1 1 2 5 5 10 9 1 5 3 6 9 6 4 5 5 6 8 8 10 12 13 14 13 12 11 9 6 5 4 5 6 6 5 3 3 7 11 12 11 11 9 8 9 9 9 10 12 12 10 11 12 12 12 12 12 12 12 12 11 10 11 12 13 13 14 16 17
4 4 5 6 5 3 4 5 3 2 4 6 6 5 6 6 6 3 1 2 2 5 4 5 8 7 8 7 1 2 2 4 6 6 7 8 10 10 12 14 15 14 14 14 12 9 7 5 5 7 8 7 6 5 5 7 9 10 11 10 9 10 10 10 11 11 10 10 11 13 12 12 13 12 13 16 17 15 12 12 12 12 13 15 16 16
4 4 4 6 5 3 3 5 2 2 4 6 6 5 6 6 5 1 2 3 4 4 3 1 3 6 9 10 9 8 9 10 11 10 10 11 11 12 13 15 16 16 16 16 15 13 11 9 8 7 7 6 5 4 4 4 5 6 6 6 7 10 11 11 10 11 11 13 14 15 13 12 13 14 16 19 20 19 18 16 14 11 11 11 13 14
4 4 4 5 5 3 3 5 2 2 2 4 7 8 7 4 1 2 4 7 9 8 6 3 3 8 11 14 13 12 12 14 13 13 14 13 13 13 14 15 16 15 15 16 16 15 16 16 14 11 10 8 7 6 4 2 3 5 6 5 4 4 5 6 7 9 11 12 13 12 10 9 10 12 15 16 15 15 16 17 15 12 9 8 9 10
2 3 4 3 2 2 3 4 3 1 2 3 6 7 4 2 1 2 5 8 8 8 9 7 7 11 16 16 14 12 13 13 13 15 16 15 14 14 15 17 18 16 17 19 20 18 18 20 19 17 15 13 12 11 9 6 8 10 10 10 10 8 6 4 4 7 9 10 9 8 7 7 7 9 10 10 10 9 10 11 10 9 8 9 9 8
0 3 4 1 1 3 4 2 1 1 2 3 3 3 3 4 5 4 4 6 7 8 10 11 13 14 16 16 15 13 13 13 14 14 15 15 15 15 16 17 19 19 19 21 21 21 22 23 23 21 20 19 17 17 15 13 14 15 15 14 13 11 11 11 9 8 9 9 9 8 8 8 7 7 6 5 5 5 6 7 8 10 9 9 8 7
1 2 3 2 2 2 2 3 3 3 3 3 2 5 8 9 7 6 7 7 8 9 12 14 16 17 16 16 15 13 13 14 14 14 14 14 15 15 16 17 17 18 18 18 19 20 22 23 24 24 24 23 22 22 21 19 19 20 20 19 17 16 16 15 14 13 12 12 12 11 9 9 8 8 8 6 6 6 6 8 9 9 8 6 6 6
3 1 2 1 2 3 3 4 4 4 5 6 6 7 9 10 9 10 11 11 10 12 14 16 18 18 16 16 15 14 14 15 15 15 15 14 14 14 15 16 16 16 17 17 17 17 18 19 20 21 22 21 20 21 21 21 21 23 24 22 21 19 18 16 16 15 16 16 16 15 13 11 11 11 11 11 12 12 10 10 9 8 7 7 7 8
4 4 2 1 3 3 2 3 4 4 5 6 6 7 9 11 11 11 13 14 14 14 15 16 17 18 17 16 15 15 15 15 16 16 15 14 15 15 16 18 19 19 19 18 17 16 17 18 19 19 20 19 17 17 18 19 20 21 21 21 20 18 16 15 15 16 17 17 17 17 16 15 15 15 14 14 15 15 14 12 11 10 11 12 12 11
5 6 3 3 3 2 3 5 6 5 5 5 6 7 9 12 12 12 13 15 16 15 15 15 16 17 17 17 17 17 17 16 16 16 15 15 15 16 18 20 21 21 21 20 20 19 19 19 20 20 20 19 17 17 17 18 18 17 17 17 16 14 13 13 13 14 13 12 12 12 13 14 15 15 15 15 16 15 14 15 15 15 15 15 15 14
6 5 3 3 4 2 4 7 8 6 6 6 5 7 10 12 14 14 14 14 15 15 15 14 14 15 17 17 17 18 18 16 16 16 16 16 16 17 19 20 21 22 22 22 23 23 23 23 22 22 21 20 18 17 17 17 16 15 15 15 14 14 14 15 15 15 15 14 13 13 13 13 12 12 12 14 14 14 13 13 14 14 14 13 12 11
5 5 3 4 5 3 4 10 10 4 4 8 9 10 11 13 14 15 15 14 15 14 14 15 15 15 16 17 17 17 17 17 16 16 16 16 16 17 19 19 21 22 23 24 24 24 23 23 23 22 22 22 20 19 18 17 15 14 13 13 12 12 13 15 16 17 17 17 16 16 16 15 14 14 15 15 14 14 14 14 14 13 12 11 10 8
5 4 4 2 1 2 6 13 11 3 5 11 12 11 12 13 13 14 15 15 15 15 15 16 16 17 17 16 16 16 16 16 15 15 15 15 15 15 16 17 19 20 21 21 21 20 20 20 20 20 20 20 19 19 18 17 16 15 13 12 12 11 11 12 14 15 16 15 15 15 16 16 15 14 15 14 14 13 13 13 12 12 11 9 8 7
Wind_Direction
199 204 204 217 223 209 205 249 280 314 298 290 316 300 302 334 9 41 52 145 173 194 181 166 198 197 155 187 199 189 195 196 188 182 177 176 175 175 178 176 173 174 172 167 166 166 166 166 165 165 170 172 170 173 177 176 174 175 176 175 174 174 172 167 164 162 160 159 155 154 155 155 155 155 153 153 155 156 162 168 166 165 166 163 166 167
202 223 211 211 212 166 214 276 275 262 259 269 297 295 296 345 24 40 46 74 105 226 164 130 196 207 169 190 200 189 194 198 192 187 180 178 178 177 179 177 173 173 171 167 167 168 167 168 167 166 171 175 173 175 177 176 176 177 179 181 180 178 176 172 170 165 163 163 158 155 156 156 159 158 154 155 156 159 168 168 164 167 169 167 170 173
203 231 205 184 175 182 236 264 263 256 256 256 268 275 286 342 15 58 87 111 130 237 169 122 183 198 167 198 203 193 198 199 192 191 187 181 179 179 180 177 175 175 173 172 170 170 172 171 169 169 173 176 176 177 177 177 179 179 181 186 186 183 177 173 172 167 165 164 159 157 158 157 159 158 157 163 160 158 166 167 165 168 171 171 174 179
206 216 174 166 188 219 224 228 248 252 246 238 244 265 300 1 332 359 95 129 152 232 167 135 162 177 167 242 229 204 202 201 194 195 193 186 183 182 182 179 178 178 175 176 174 173 174 173 173 174 177 177 177 179 179 179 180 180 184 187 189 188 178 172 173 169 166 164 161 160 161 159 161 164 164 167 165 159 163 169 170 171 173 172 175 178
227 103 121 180 196 224 231 224 236 248 244 205 207 270 10 15 318 338 58 136 165 202 166 125 92 247 202 211 221 207 206 205 198 198 197 192 189 186 185 183 182 182 179 179 179 176 176 176 178 179 180 179 179 182 182 181 181 181 186 188 189 190 181 175 175 171 166 166 165 164 165 165 167 170 167 165 166 166 167 171 175 177 176 172 172 172
221 109 146 205 200 219 236 236 232 244 256 212 164 186 106 29 307 324 311 230 201 204 167 148 165 248 202 206 203 196 214 212 200 200 199 192 189 189 189 187 186 185 183 185 184 180 179 178 180 183 184 183 183 185 184 183 182 182 188 190 188 187 183 179 177 173 169 170 171 170 170 172 171 171 171 167 169 173 171 171 178 181 178 172 169 169
201 140 187 215 203 215 228 241 233 227 261 244 122 109 116 222 293 296 264 269 293 36 147 175 209 190 204 210 195 190 208 214 210 206 200 194 190 190 192 190 189 188 186 189 188 184 183 180 181 186 188 186 185 186 184 183 183 183 189 191 187 186 184 182 181 178 177 177 177 177 176 177 174 172 174 170 168 174 174 175 182 183 181 176 170 173
190 179 200 214 215 219 220 234 227 217 252 254 110 131 133 210 286 278 265 279 324 28 164 192 211 215 232 209 183 190 203 209 214 211 201 197 194 192 194 193 192 191 188 189 189 188 187 185 185 188 189 187 185 185 183 182 183 186 192 192 188 187 185 185 186 183 183 184 184 182 181 180 176 175 179 174 167 174 178 179 182 182 184 184 177 178
183 207 206 211 224 230 227 243 232 220 247 236 124 173 124 118 275 270 273 289 323 284 226 186 192 223 230 176 164 191 206 209 209 208 202 198 196 194 197 196 193 193 192 190 190 190 189 189 190 189 189 186 183 185 184 182 183 188 194 193 190 190 188 187 188 188 186 186 187 187 185 183 178 176 179 177 175 180 182 182 185 185 187 190 186 183
175 220 218 218 228 232 231 246 260 242 250 151 147 192 136 143 235 254 266 284 247 254 255 178 180 217 229 165 164 191 212 215 209 206 203 199 195 194 196 197 195 193 193 193 192 190 191 193 192 190 188 185 182 184 185 182 182 187 193 194 193 191 191 190 191 191 188 184 186 189 189 185 181 177 175 178 186 189 189 190 194 195 191 191 197 198
168 179 217 229 236 249 239 210 230 247 240 156 181 199 146 138 233 256 255 261 245 240 240 162 182 215 246 174 174 191 208 209 206 205 198 196 196 195 196 197 195 192 192 193 192 190 191 194 194 191 188 185 182 183 184 183 182 185 191 194 193 193 194 194 194 193 190 186 186 190 191 188 184 183 180 182 189 193 194 194 197 204 201 197 200 205
194 189 205 217 223 236 229 197 212 224 203 196 208 200 168 150 228 255 237 223 243 229 110 142 186 210 240 193 177 195 204 203 207 205 192 192 196 194 195 196 194 191 190 191 192 191 190 193 195 192 188 184 181 183 185 185 184 185 190 194 192 193 195 195 196 195 193 192 190 191 192 189 187 188 187 188 190 193 197 197 198 204 205 205 203 202
200 201 200 199 205 214 216 204 195 197 198 212 217 202 213 210 208 248 230 207 234 185 105 144 180 204 244 242 189 195 203 206 212 210 193 189 193 192 193 194 193 191 190 190 191 192 191 193 195 192 187 184 183 186 186 186 186 185 189 194 193 192 194 194 196 198 197 198 197 194 193 192 192 192 191 192 193 197 199 199 203 206 208 210 209 207
192 182 185 189 187 201 216 216 188 191 204 213 210 208 225 224 214 239 227 209 229 134 113 162 184 217 247 234 196 201 208 208 210 210 199 192 193 192 191 192 192 191 191 190 190 193 193 193 194 191 188 188 188 189 188 186 187 187 191 196 194 193 194 194 195 197 200 202 202 200 197 196 195 195 196 196 197 201 204 202 204 206 211 215 213 212
259 157 172 193 171 182 206 224 211 200 209 218 215 219 234 230 222 244 244 226 236 154 133 158 195 247 254 161 146 195 211 208 206 205 201 198 197 194 191 192 192 190 191 191 191 193 194 193 193 192 191 193 192 189 189 188 188 189 193 197 197 194 196 196 196 197 199 202 204 204 202 201 200 199 200 201 200 203 205 206 207 208 209 214 217 217
270 93 133 199 174 178 205 220 221 222 223 218 214 223 239 234 222 253 286 285 290 273 185 180 206 248 192 139 130 135 194 195 195 196 196 199 201 197 192 191 192 190 189 192 192 192 194 194 194 194 194 195 193 190 189 190 191 192 195 199 198 196 197 199 199 198 199 201 203 205 204 203 204 203 202 204 205 204 204 205 210 214 212 211 217 220
253 122 109 192 203 203 224 221 213 229 234 203 212 223 232 239 235 251 266 258 265 268 228 197 226 214 165 152 141 198 204 178 179 189 192 195 200 200 194 191 193 192 189 192 194 194 195 195 195 196 195 194 193 191 190 192 194 195 196 198 198 197 198 200 201 201 202 202 203 205 205 205 207 207 206 209 210 209 211 211 211 217 220 219 219 220
300 208 121 57 210 203 237 230 210 218 227 224 222 215 196 211 239 248 259 250 237 241 222 201 238 222 177 176 152 181 187 171 171 178 185 193 199 200 194 191 193 192 190 191 193 194 195 196 197 197 196 195 194 193 194 196 197 196 197 198 197 197 198 200 202 202 203 205 206 207 207 207 208 209 210 215 216 214 217 219 217 217 223 224 221 216
320 256 140 65 21 16 237 227 208 201 221 250 287 222 204 214 217 212 241 261 242 239 246 213 210 183 30 54 110 125 155 169 174 168 174 189 198 201 195 192 197 195 191 191 191 193 195 196 198 198 196 196 195 195 197 198 196 195 197 197 198 199 200 200 201 203 205 207 207 209 211 212 211 210 210 214 218 218 218 221 222 224 224 223 222 222
295 262 201 81 47 343 251 218 209 186 197 241 276 241 233 235 226 209 228 262 251 235 256 240 200 122 48 3 358 359 9 190 184 174 176 184 191 199 196 194 198 197 193 193 192 192 194 195 198 199 198 198 198 197 196 196 195 195 197 197 198 200 201 201 201 203 206 206 207 209 212 214 215 215 214 215 218 219 221 223 222 224 226 223 222 226
239 253 259 113 114 236 242 233 249 203 177 208 214 211 223 209 203 230 243 249 259 243 191 269 275 106 78 353 333 335 320 240 200 186 181 180 184 192 197 196 196 193 192 194 193 193 193 195 197 198 200 202 201 197 194 195 197 195 197 198 198 199 201 203 203 204 207 207 207 210 212 214 216 216 216 218 221 222 222 224 223 221 223 223 222 222
250 260 266 213 168 223 210 229 267 259 204 213 186 204 235 210 185 216 221 203 209 237 144 225 281 351 41 342 328 333 320 269 209 194 184 179 182 187 195 196 188 185 189 191 193 195 193 195 197 196 198 199 199 197 193 194 197 196 197 199 199 199 201 203 204 206 208 207 208 211 211 212 213 216 216 216 220 223 222 223 223 222 221 222 225 226
320 288 271 266 278 340 130 195 243 242 159 112 116 216 244 222 199 238 234 170 164 153 53 269 258 282 16 344 339 343 337 325 197 190 181 179 180 180 184 188 186 190 196 196 194 195 195 196 195 194 196 196 201 204 196 192 196 198 201 205 204 203 204 206 204 206 211 211 210 211 210 210 212 215 217 215 217 220 220 221 222 224 223 221 225 229
294 279 268 260 268 75 113 148 205 161 114 77 194 227 249 219 232 264 281 262 223 153 119 263 251 190 38 2 353 360 18 46 125 164 172 174 177 177 181 190 195 199 202 198 193 195 197 196 195 194 193 195 206 212 203 198 202 205 209 214 214 210 211 211 206 204 212 216 213 211 210 210 211 213 215 215 217 218 219 219 220 223 224 223 225 228
293 304 291 260 246 201 169 144 160 167 154 175 194 146 45 321 266 255 236 252 254 197 205 258 265 81 60 30 15 16 39 61 82 120 159 171 176 179 184 193 199 201 202 197 191 194 197 195 194 191 191 200 212 216 212 211 213 215 217 219 219 215 213 213 208 205 211 217 215 212 211 210 210 213 214 214 217 219 219 219 220 223 224 224 225 225
305 317 296 258 252 239 228 187 202 214 186 171 133 88 91 335 277 262 232 224 235 188 207 260 289 71 96 59 35 26 44 63 72 88 130 157 173 183 188 196 198 194 198 200 196 195 196 194 191 188 193 208 216 216 220 222 220 220 222 220 220 217 214 213 210 209 212 214 213 214 213 211 211 213 215 215 216 218 219 219 220 222 224 223 225 225
262 265 310 293 234 247 259 195 190 237 236 162 113 88 119 135 229 251 250 228 224 278 261 247 261 244 136 76 38 24 37 52 60 64 77 126 170 180 186 197 201 196 195 198 197 196 195 193 191 192 201 214 215 212 222 227 222 222 222 220 220 218 215 216 214 213 214 211 212 215 216 215 213 213 215 217 217 217 218 220 220 221 223 223 223 225
283 255 344 68 109 172 222 181 173 221 232 179 149 124 120 122 181 228 248 234 157 287 272 265 286 268 104 75 41 27 31 38 46 44 44 72 154 176 176 185 195 197 195 194 193 193 195 195 196 199 205 215 214 209 218 226 225 226 225 223 223 219 215 216 215 214 215 213 214 217 217 218 218 216 215 216 217 217 217 219 220 219 221 222 222 223
273 250 223 115 124 151 174 182 188 215 212 197 187 140 118 134 172 220 252 255 215 240 266 334 308 258 89 75 53 41 33 40 49 45 48 67 79 144 177 174 179 185 187 190 192 193 198 201 204 206 206 212 212 206 211 221 225 228 229 228 228 223 218 217 216 217 218 218 219 220 220 219 221 222 221 220 222 220 216 217 221 221 221 222 224 225
257 239 173 148 136 169 191 187 198 301 275 204 183 97 76 68 142 186 249 264 266 258 268 284 266 143 80 75 74 58 50 60 64 62 58 62 67 68 103 142 155 159 161 170 178 180 187 195 199 202 201 208 215 210 209 217 223 229 232 233 233 231 224 219 219 219 220 221 222 224 224 223 223 224 224 224 226 226 221 217 217 221 223 224 227 227
244 215 146 133 130 221 226 219 238 296 325 60 113 78 57 47 62 78 271 279 273 265 269 261 230 151 94 101 89 73 68 66 65 69 66 64 76 85 86 96 107 114 117 122 132 143 156 168 177 185 195 211 223 222 220 222 227 235 241 242 241 239 233 227 224 223 222 224 226 227 228 227 225 224 223 222 224 225 225 222 218 219 221 223 228 230
254 191 149 156 261 251 235 242 262 270 264 111 94 61 44 60 66 20 342 330 322 320 297 261 228 162 132 125 96 82 78 71 64 68 72 70 77 96 107 101 92 92 99 103 107 125 145 157 168 178 193 215 226 229 228 225 229 238 245 246 246 246 242 236 233 231 228 228 230 231 230 229 228 226 222 220 220 221 224 225 224 225 226 226 228 233
267 222 170 191 249 255 234 246 274 271 240 202 98 54 34 65 74 353 347 339 337 7 329 264 234 129 129 130 109 98 90 78 67 67 74 79 79 88 112 121 112 96 95 100 100 113 139 160 179 190 201 228 235 235 234 233 231 235 241 246 248 249 247 242 239 239 236 234 234 232 229 227 227 229 227 223 222 222 222 223 224 227 231 232 230 232
261 263 225 211 254 251 225 240 263 257 247 225 89 66 32 47 35 332 5 348 327 355 316 274 218 115 119 116 105 100 90 80 73 71 73 81 86 88 96 109 122 118 113 116 108 107 131 157 188 210 222 242 249 249 246 245 242 236 234 239 243 243 244 243 242 241 241 240 236 232 229 226 223 227 231 229 225 223 223 223 223 224 227 230 233 234
258 268 286 269 282 294 216 239 260 254 233 106 100 83 49 63 37 316 11 355 304 326 331 293 154 114 103 99 96 94 88 80 73 70 67 70 80 86 85 90 105 116 116 117 119 127 145 163 192 220 237 249 257 260 255 249 245 238 233 234 233 231 235 238 237 238 240 239 233 231 232 226 219 221 228 231 229 227 226 226 226 227 227 228 232 235
264 270 283 276 289 303 251 250 275 293 121 157 152 137 115 94 31 271 110 67 289 326 358 305 135 108 102 104 101 96 92 82 67 59 58 62 73 81 82 80 91 103 106 109 124 150 169 180 198 218 232 243 250 255 257 254 247 233 223 227 228 226 227 227 225 227 229 228 227 230 233 230 221 218 220 223 224 227 231 231 229 230 230 231 231 232
262 274 280 265 256 280 279 276 272 208 204 203 167 118 97 78 68 94 115 69 304 356 13 307 136 114 112 116 114 112 104 87 66 50 48 56 69 79 81 79 84 95 103 111 123 136 149 162 177 190 199 219 236 238 237 242 238 217 202 206 214 215 214 212 211 213 217 220 223 227 230 231 229 225 224 224 224 226 229 230 231 232 232 234 234 234
247 260 273 267 242 262 283 282 255 232 219 183 123 98 97 105 106 112 138 230 345 27 2 331 307 125 122 127 136 140 127 90 67 45 42 54 68 78 83 83 82 87 93 99 104 110 124 145 163 173 173 183 228 237 233 231 225 210 199 193 194 201 203 203 206 210 212 214 217 218 219 223 227 230 230 228 225 224 223 221 226 232 233 234 237 239
230 232 246 260 249 245 272 275 277 303 78 125 129 119 117 129 137 142 172 337 91 88 20 326 307 128 97 95 158 168 159 110 87 60 53 65 73 77 84 86 83 80 80 81 82 88 103 131 152 151 147 154 161 189 222 227 225 223 221 214 207 207 206 202 204 207 207 210 217 217 214 216 222 227 230 229 223 221 228 233 235 240 242 241 243 245
230 231 231 248 247 234 260 274 292 21 82 108 118 117 121 146 173 179 340 350 64 92 75 323 308 322 348 352 9 160 123 110 117 103 83 81 80 81 87 91 90 86 82 78 74 74 83 107 131 126 121 128 137 141 164 191 206 214 217 217 214 204 195 195 203 209 211 216 222 220 216 217 224 230 238 240 233 227 239 256 254 249 249 247 243 244
235 239 243 260 260 230 247 272 286 81 97 101 101 114 140 165 194 257 38 92 116 102 99 310 347 6 9 24 54 71 77 97 114 113 101 92 86 85 89 94 96 93 87 84 83 83 85 92 108 121 122 121 124 123 131 161 187 186 183 197 217 214 203 202 210 216 216 215 216 219 225 233 239 242 247 249 243 235 241 255 256 246 242 240 237 239
238 237 236 256 268 258 257 267 253 117 92 78 98 124 157 188 228 22 74 113 132 141 153 160 89 80 76 72 76 87 96 104 110 108 102 96 90 88 90 92 95 92 89 90 92 92 92 92 96 105 111 115 118 112 106 144 164 138 122 124 146 187 200 207 215 214 213 213 215 222 235 245 243 239 239 243 242 233 231 239 243 237 230 222 222 235
276 260 238 233 261 263 252 258 260 99 89 118 127 139 181 246 33 94 101 106 122 142 146 139 121 111 107 101 103 109 109 109 109 107 103 98 92 91 89 88 90 90 90 91 91 91 92 92 91 90 90 93 100 107 114 132 135 129 124 118 113 115 121 131 167 190 193 196 198 200 207 212 214 219 224 229 230 220 216 224 224 214 206 202 206 226
259 280 265 241 45 269 260 262 315 38 110 167 174 131 118 117 121 138 133 114 123 140 139 134 131 125 120 119 121 121 115 112 111 108 103 99 96 95 91 90 91 91 91 91 91 91 93 93 92 92 92 93 98 105 112 119 119 115 110 105 104 108 110 111 119 136 144 146 148 154 160 168 175 182 190 198 198 192 193 195 191 188 194 201 207 219
64 344 307 348 46 337 346 51 80 101 116 137 128 101 113 124 130 140 139 130 134 142 140 135 132 129 129 129 128 125 120 113 109 105 102 99 96 94 93 94 94 93 92 91 90 91 93 93 94 96 96 96 99 100 101 103 103 97 92 90 95 100 104 109 117 123 122 119 119 123 128 133 141 145 146 146 144 146 157 170 178 184 188 186 183 186
84 122 273 288 115 105 69 69 98 114 114 117 115 115 126 133 134 134 134 132 135 139 139 136 134 134 135 133 129 124 119 114 109 105 103 100 96 94 93 95 96 96 95 93 91 91 93 93 94 94 94 93 94 94 95 97 98 96 91 90 92 96 102 109 115 115 114 111 108 107 108 111 115 121 134 148 149 146 149 160 169 173 164 154 152 150
144 181 225 186 162 164 139 124 127 125 124 127 128 129 132 133 133 133 131 131 134 139 139 138 138 139 137 133 128 123 119 116 111 106 103 101 98 96 95 97 100 100 99 98 98 98 99 98 96 95 94 92 89 88 88 89 92 96 98 98 99 100 103 106 104 102 104 106 105 102 99 98 99 104 115 129 133 133 135 139 142 143 135 127 126 125
158 191 208 165 167 158 105 122 132 131 133 137 139 141 139 134 130 128 127 129 133 136 137 137 138 137 135 131 129 125 120 117 113 109 106 104 101 99 99 99 101 102 102 103 103 101 99 98 98 98 97 94 92 90 87 85 86 90 92 93 95 96 96 96 95 94 95 100 105 107 103 99 100 104 110 114 117 120 124 124 122 122 121 118 119 120
137 171 177 161 165 140 114 143 153 145 143 151 145 142 142 136 129 126 125 126 128 129 131 132 133 133 132 131 130 128 123 119 116 113 109 106 105 105 103 101 102 104 105 105 104 101 98 97 96 96 96 95 95 93 92 91 92 93 94 93 93 93 93 95 97 98 97 98 104 109 109 106 105 106 105 108 112 117 118 115 112 113 114 114 117 120
165 166 157 181 196 192 153 164 172 167 145 153 151 143 142 138 131 129 129 129 131 132 131 129 128 129 131 132 132 130 125 122 121 117 112 110 108 107 106 106 107 107 108 107 104 100 98 95 93 92 92 92 92 91 91 91 92 92 96 100 101 101 101 102 104 105 106 108 110 111 110 109 109 108 104 103 104 108 109 107 105 105 107 110 112 115
193 175 171 196 295 57 135 158 172 171 124 141 148 145 143 141 136 134 134 134 136 137 136 135 133 131 132 134 134 131 127 126 126 122 117 115 112 109 108 108 109 110 111 110 107 102 99 97 93 91 90 88 88 88 88 89 89 87 88 92 95 100 105 110 112 111 111 115 118 118 115 114 114 115 113 110 108 107 108 110 111 111 112 114 117 120
Height
1522 1523 1524 1523 1519 1517 1517 1518 1518 1520 1525 1526 1527 1528 1526 1525 1526 1527 1530 1528 1525 1532 1536 1534 1537 1537 1536 1535 1532 1533 1534 1533 1534 1536 1538 1540 1542 1544 1546 1549 1551 1554 1556 1558 1560 1562 1564 1565 1567 1568 1570 1571 1572 1573 1573 1574 1575 1576 1577 1579 1579 1580 1581 1582 1583 1584 1585 1587 1587 1589 1590 1591 1592 1592 1594 1595 1596 1598 1598 1599 1599 1600 1601 1602 1603 1604
1523 1523 1520 1516 1515 1515 1517 1519 1519 1521 1523 1525 1527 1529 1525 1525 1527 1527 1529 1529 1526 1532 1535 1533 1537 1538 1536 1535 1533 1533 1533 1532 1533 1535 1536 1539 1541 1543 1545 1548 1551 1553 1555 1557 1560 1562 1563 1565 1566 1568 1569 1570 1571 1572 1573 1574 1575 1576 1577 1579 1579 1580 1581 1582 1583 1584 1586 1587 1588 1590 1591 1592 1593 1593 1594 1596 1597 1598 1598 1599 1600 1601 1602 1603 1603 1604
1525 1521 1515 1513 1514 1517 1520 1519 1520 1521 1522 1523 1526 1529 1528 1525 1526 1529 1529 1528 1528 1531 1533 1534 1538 1539 1535 1534 1533 1532 1532 1531 1532 1534 1536 1538 1539 1542 1544 1547 1550 1552 1554 1556 1559 1561 1562 1564 1565 1567 1569 1570 1571 1572 1573 1574 1575 1576 1577 1578 1579 1580 1581 1582 1584 1584 1586 1587 1588 1590 1591 1593 1594 1594 1595 1596 1597 1598 1599 1599 1600 1601 1602 1603 1604 1605
1523 1517 1511 1513 1517 1519 1520 1519 1520 1521 1519 1520 1523 1526 1528 1526 1528 1532 1531 1529 1529 1530 1532 1534 1538 1539 1537 1536 1533 1531 1532 1532 1533 1535 1536 1537 1539 1541 1543 1546 1548 1551 1553 1555 1557 1559 1561 1563 1565 1566 1568 1569 1571 1572 1573 1574 1574 1576 1577 1578 1579 1580 1581 1582 1584 1585 1586 1587 1588 1589 1591 1592 1593 1594 1595 1596 1596 1598 1599 1600 1600 1601 1602 1603 1604 1605
1517 1512 1512 1515 1518 1519 1520 1520 1520 1520 1517 1515 1520 1523 1525 1528 1528 1528 1529 1529 1529 1531 1530 1533 1543 1543 1539 1540 1537 1532 1532 1532 1533 1535 1535 1537 1539 1541 1543 1545 1547 1549 1552 1554 1556 1558 1560 1562 1564 1565 1567 1569 1570 1571 1572 1573 1574 1575 1576 1577 1579 1580 1582 1583 1584 1585 1586 1587 1588 1589 1591 1592 1593 1594 1595 1596 1597 1598 1599 1600 1601 1602 1602 1603 1604 1605
1514 1513 1515 1517 1518 1518 1520 1520 1517 1519 1517 1513 1517 1520 1523 1529 1528 1525 1528 1527 1528 1534 1531 1533 1551 1552 1539 1539 1540 1536 1535 1533 1532 1533 1533 1536 1538 1541 1542 1543 1546 1549 1551 1554 1555 1557 1559 1561 1563 1564 1566 1568 1569 1571 1572 1573 1574 1575 1576 1577 1578 1580 1581 1583 1584 1585 1586 1587 1588 1589 1590 1592 1593 1594 1595 1596 1598 1599 1600 1601 1602 1602 1603 1603 1604 1605
1512 1513 1515 1516 1518 1518 1520 1519 1514 1517 1519 1516 1517 1519 1522 1526 1526 1526 1528 1526 1527 1534 1533 1530 1546 1555 1545 1539 1538 1537 1537 1534 1533 1531 1531 1534 1536 1539 1541 1542 1544 1547 1550 1553 1554 1556 1558 1560 1562 1564 1565 1567 1569 1570 1571 1573 1574 1575 1575 1576 1578 1580 1581 1582 1584 1585 1586 1587 1588 1589 1590 1592 1593 1594 1595 1596 1598 1599 1600 1601 1602 1602 1603 1603 1604 1605
1511 1515 1516 1516 1517 1517 1519 1518 1512 1513 1519 1520 1518 1519 1521 1524 1527 1526 1527 1527 1525 1529 1533 1530 1536 1550 1549 1539 1533 1533 1535 1535 1535 1531 1529 1531 1534 1537 1540 1541 1543 1545 1547 1551 1553 1555 1557 1559 1560 1562 1564 1566 1568 1569 1570 1572 1573 1574 1575 1576 1577 1579 1580 1582 1583 1584 1586 1587 1588 1589 1591 1592 1593 1595 1596 1596 1598 1599 1600 1601 1601 1602 1603 1603 1604 1605
1509 1514 1515 1515 1518 1517 1515 1512 1509 1511 1517 1517 1516 1518 1520 1525 1529 1527 1524 1524 1523 1529 1535 1530 1532 1545 1544 1534 1531 1532 1533 1534 1533 1529 1527 1528 1531 1535 1538 1539 1541 1544 1546 1548 1551 1553 1556 1558 1560 1561 1563 1565 1567 1568 1569 1571 1572 1573 1574 1575 1577 1578 1580 1581 1583 1584 1585 1587 1588 1589 1591 1592 1593 1595 1596 1597 1598 1599 1599 1600 1601 1602 1603 1603 1604 1605
1509 1510 1510 1512 1515 1514 1510 1508 1508 1512 1515 1513 1514 1517 1519 1525 1528 1526 1525 1523 1527 1535 1534 1526 1530 1539 1537 1530 1533 1536 1532 1529 1527 1525 1525 1525 1528 1532 1535 1537 1539 1542 1545 1547 1549 1552 1554 1557 1558 1561 1562 1564 1566 1567 1569 1570 1572 1573 1573 1575 1576 1578 1580 1581 1582 1584 1585 1587 1588 1589 1591 1592 1593 1594 1596 1597 1598 1598 1599 1600 1601 1601 1602 1603 1604 1605
1507 1509 1510 1510 1511 1508 1506 1508 1509 1511 1511 1512 1515 1518 1522 1527 1528 1525 1521 1520 1532 1536 1526 1521 1524 1532 1534 1526 1525 1529 1523 1519 1520 1520 1521 1522 1525 1529 1532 1535 1537 1539 1543 1545 1548 1551 1554 1556 1558 1560 1561 1563 1565 1566 1568 1570 1571 1572 1573 1574 1576 1577 1579 1580 1582 1584 1585 1586 1588 1589 1590 1591 1593 1594 1595 1596 1597 1598 1599 1600 1601 1601 1602 1603 1604 1605
1505 1510 1509 1507 1508 1507 1507 1510 1510 1509 1510 1513 1515 1518 1527 1533 1532 1531 1526 1527 1539 1537 1523 1519 1520 1528 1536 1523 1513 1516 1513 1512 1514 1513 1515 1518 1521 1526 1529 1532 1535 1537 1541 1544 1547 1549 1552 1555 1557 1559 1560 1562 1564 1565 1567 1569 1570 1571 1573 1573 1575 1576 1578 1580 1581 1583 1584 1586 1587 1589 1590 1591 1592 1594 1595 1596 1597 1598 1598 1599 1601 1601 1602 1603 1604 1605
1504 1504 1503 1504 1505 1506 1508 1511 1511 1511 1511 1513 1514 1520 1531 1536 1539 1543 1539 1535 1535 1528 1520 1517 1522 1532 1531 1513 1506 1510 1509 1509 1510 1508 1511 1515 1518 1522 1526 1530 1532 1535 1539 1541 1545 1548 1550 1553 1555 1557 1560 1561 1563 1564 1566 1568 1569 1570 1572 1573 1574 1576 1577 1579 1581 1582 1584 1585 1587 1588 1589 1591 1592 1593 1594 1595 1596 1597 1598 1599 1600 1601 1601 1602 1603 1604
1503 1500 1499 1503 1505 1504 1505 1508 1513 1515 1514 1513 1514 1522 1528 1532 1547 1550 1536 1531 1530 1524 1519 1516 1523 1531 1520 1505 1502 1504 1504 1505 1506 1507 1510 1513 1516 1520 1523 1527 1531 1533 1537 1540 1543 1546 1548 1551 1554 1556 1558 1559 1561 1563 1565 1567 1568 1569 1571 1572 1573 1575 1576 1578 1580 1581 1583 1585 1586 1587 1589 1590 1591 1592 1593 1595 1596 1597 1598 1598 1599 1600 1601 1602 1602 1603
1509 1510 1503 1502 1503 1501 1501 1502 1505 1508 1510 1510 1507 1512 1515 1517 1537 1540 1525 1525 1525 1519 1520 1522 1527 1525 1515 1506 1500 1497 1500 1502 1504 1506 1510 1513 1515 1518 1521 1525 1529 1532 1535 1538 1541 1544 1547 1549 1552 1554 1556 1558 1560 1562 1564 1565 1567 1568 1569 1570 1572 1574 1575 1577 1579 1581 1582 1584 1585 1587 1588 1589 1591 1592 1593 1594 1595 1596 1597 1598 1599 1600 1601 1602 1602 1603
1509 1511 1502 1499 1498 1498 1500 1497 1496 1501 1509 1506 1500 1508 1510 1503 1514 1521 1516 1514 1514 1516 1519 1520 1519 1509 1503 1502 1495 1496 1499 1498 1503 1507 1508 1513 1514 1516 1520 1523 1527 1530 1533 1537 1539 1542 1545 1547 1550 1553 1554 1557 1559 1561 1562 1564 1566 1567 1568 1569 1571 1573 1575 1576 1578 1580 1581 1583 1585 1586 1587 1589 1590 1591 1592 1593 1594 1595 1596 1597 1598 1599 1599 1601 1601 1601
1510 1511 1500 1499 1499 1496 1497 1495 1494 1501 1507 1504 1505 1510 1505 1496 1503 1516 1517 1509 1512 1525 1517 1506 1506 1499 1496 1501 1496 1497 1500 1497 1502 1506 1507 1512 1514 1515 1518 1521 1525 1528 1530 1535 1537 1540 1543 1546 1549 1551 1553 1555 1557 1559 1561 1562 1564 1565 1567 1568 1570 1572 1574 1575 1577 1579 1580 1582 1584 1585 1586 1588 1589 1590 1592 1592 1593 1594 1595 1596 1597 1598 1599 1599 1600 1601
1509 1511 1500 1499 1502 1497 1495 1495 1494 1496 1499 1504 1509 1505 1498 1500 1506 1513 1523 1520 1519 1527 1514 1500 1505 1501 1501 1510 1503 1498 1502 1500 1501 1504 1507 1511 1513 1515 1517 1520 1523 1525 1529 1533 1535 1539 1542 1544 1547 1549 1551 1554 1555 1558 1559 1561 1563 1564 1566 1568 1569 1571 1572 1574 1576 1578 1579 1581 1582 1584 1585 1587 1588 1590 1591 1592 1593 1594 1595 1595 1596 1597 1598 1598 1599 1600
1504 1512 1505 1498 1503 1502 1496 1498 1500 1497 1496 1499 1501 1497 1499 1514 1518 1516 1527 1531 1527 1531 1520 1503 1500 1501 1504 1509 1504 1500 1502 1501 1501 1504 1507 1510 1512 1514 1515 1519 1522 1524 1528 1531 1533 1537 1539 1542 1545 1546 1550 1552 1554 1557 1558 1560 1562 1564 1566 1567 1569 1570 1572 1574 1575 1577 1578 1580 1581 1583 1584 1585 1587 1588 1590 1591 1592 1593 1594 1595 1595 1596 1597 1598 1598 1599
1501 1512 1511 1501 1504 1508 1502 1501 1504 1502 1499 1499 1500 1499 1499 1508 1514 1514 1518 1520 1523 1533 1536 1523 1508 1505 1508 1505 1501 1502 1500 1498 1500 1501 1504 1507 1510 1513 1514 1517 1520 1522 1525 1528 1531 1535 1537 1540 1543 1544 1548 1550 1552 1555 1557 1559 1561 1563 1565 1566 1568 1570 1571 1573 1575 1576 1577 1579 1580 1582 1583 1584 1585 1587 1588 1590 1591 1592 1593 1594 1594 1596 1596 1597 1598 1598
1499 1507 1512 1505 1508 1514 1509 1504 1500 1498 1502 1504 1504 1507 1508 1504 1506 1513 1513 1508 1513 1526 1542 1549 1532 1509 1504 1503 1500 1501 1498 1495 1497 1498 1500 1504 1507 1511 1513 1515 1517 1520 1523 1527 1530 1533 1535 1538 1541 1543 1546 1548 1550 1553 1556 1558 1560 1562 1564 1565 1567 1569 1570 1572 1574 1575 1576 1578 1579 1581 1582 1583 1584 1585 1587 1588 1589 1590 1591 1593 1593 1594 1595 1595 1596 1597
1501 1504 1506 1505 1507 1511 1509 1504 1498 1495 1498 1500 1504 1513 1515 1508 1509 1521 1519 1507 1509 1518 1531 1549 1546 1520 1506 1503 1499 1496 1495 1493 1493 1495 1498 1502 1506 1509 1512 1513 1516 1518 1521 1525 1528 1531 1534 1536 1539 1542 1544 1546 1549 1551 1554 1557 1559 1561 1563 1564 1566 1567 1569 1571 1572 1574 1575 1576 1578 1579 1580 1582 1583 1584 1585 1587 1588 1589 1590 1591 1592 1593 1593 1594 1595 1595
1501 1502 1505 1505 1503 1503 1503 1501 1499 1498 1496 1498 1508 1516 1511 1506 1511 1521 1521 1512 1510 1517 1522 1535 1540 1524 1508 1502 1498 1495 1493 1492 1492 1494 1496 1501 1505 1508 1510 1512 1514 1516 1519 1523 1527 1530 1532 1535 1538 1541 1543 1545 1547 1549 1552 1555 1557 1559 1561 1562 1564 1565 1567 1569 1571 1573 1574 1574 1576 1578 1579 1581 1582 1583 1584 1585 1587 1588 1589 1590 1591 1591 1592 1593 1594 1594
1503 1504 1508 1507 1502 1499 1499 1499 1497 1499 1503 1509 1514 1512 1506 1506 1510 1512 1514 1514 1511 1515 1528 1539 1535 1518 1506 1501 1498 1495 1493 1492 1493 1494 1496 1500 1504 1507 1509 1511 1513 1516 1519 1522 1525 1529 1531 1534 1536 1539 1541 1543 1545 1547 1550 1553 1554 1557 1558 1560 1562 1564 1565 1567 1569 1571 1572 1573 1574 1576 1578 1579 1581 1582 1583 1584 1585 1586 1588 1589 1590 1590 1591 1592 1593 1593
1506 1509 1513 1516 1518 1515 1509 1511 1513 1510 1510 1515 1514 1509 1507 1507 1508 1507 1508 1515 1515 1512 1521 1531 1524 1511 1505 1501 1499 1497 1495 1493 1494 1495 1497 1500 1503 1506 1508 1511 1513 1516 1518 1521 1524 1527 1530 1532 1535 1537 1539 1541 1543 1545 1548 1550 1552 1554 1556 1558 1560 1562 1564 1565 1567 1569 1570 1571 1573 1574 1576 1578 1579 1580 1581 1583 1584 1585 1586 1587 1588 1589 1589 1590 1591 1592
1509 1514 1518 1525 1533 1530 1521 1526 1534 1523 1509 1508 1508 1508 1510 1510 1512 1512 1511 1518 1521 1511 1510 1517 1515 1511 1508 1502 1501 1500 1497 1496 1496 1496 1498 1500 1502 1505 1507 1510 1513 1515 1517 1520 1523 1526 1529 1531 1533 1535 1537 1539 1541 1544 1546 1548 1550 1552 1554 1556 1558 1561 1562 1564 1565 1567 1568 1570 1571 1572 1574 1575 1577 1579 1580 1581 1582 1583 1584 1585 1586 1587 1588 1589 1590 1590
1508 1513 1516 1522 1527 1523 1516 1520 1525 1517 1507 1508 1509 1509 1510 1511 1514 1516 1515 1515 1513 1508 1508 1506 1503 1507 1509 1505 1505 1503 1499 1498 1498 1497 1499 1501 1502 1505 1506 1509 1512 1515 1518 1520 1523 1526 1528 1530 1532 1534 1535 1537 1540 1542 1544 1546 1548 1550 1552 1554 1556 1559 1560 1562 1564 1565 1566 1568 1569 1570 1571 1573 1575 1576 1578 1579 1580 1581 1583 1584 1585 1586 1586 1587 1588 1589
1510 1514 1514 1517 1521 1518 1513 1513 1511 1510 1510 1510 1510 1509 1509 1511 1513 1516 1515 1507 1505 1514 1517 1503 1495 1502 1507 1507 1508 1506 1503 1501 1500 1500 1502 1502 1503 1504 1506 1509 1511 1514 1518 1520 1522 1525 1527 1529 1531 1533 1534 1536 1538 1541 1542 1544 1546 1548 1550 1552 1554 1556 1558 1560 1562 1563 1565 1566 1567 1568 1569 1571 1572 1573 1575 1577 1578 1579 1581 1582 1583 1584 1585 1586 1586 1587
1510 1514 1511 1513 1518 1515 1512 1512 1509 1508 1509 1508 1507 1507 1507 1509 1512 1516 1515 1505 1502 1512 1514 1506 1503 1505 1505 1508 1509 1507 1505 1504 1504 1504 1504 1504 1505 1506 1506 1508 1511 1513 1517 1519 1522 1524 1526 1528 1530 1532 1534 1536 1538 1540 1542 1543 1545 1546 1548 1550 1552 1554 1556 1558 1560 1561 1563 1564 1565 1566 1568 1569 1570 1571 1573 1574 1575 1577 1578 1580 1581 1582 1583 1584 1585 1586
1508 1511 1509 1512 1519 1517 1513 1512 1510 1507 1507 1506 1506 1506 1505 1506 1507 1512 1514 1507 1503 1506 1503 1502 1506 1506 1506 1508 1508 1507 1507 1506 1505 1506 1505 1505 1507 1507 1507 1509 1511 1513 1516 1519 1521 1523 1525 1528 1529 1531 1533 1535 1537 1540 1542 1543 1545 1546 1547 1549 1550 1552 1554 1556 1558 1559 1560 1562 1563 1565 1566 1567 1568 1570 1571 1572 1573 1574 1576 1577 1579 1580 1581 1582 1583 1584
1507 1509 1510 1514 1522 1522 1515 1512 1511 1509 1508 1508 1507 1506 1505 1506 1507 1509 1511 1508 1507 1508 1504 1501 1505 1509 1509 1507 1507 1508 1509 1507 1507 1507 1507 1507 1509 1510 1511 1511 1512 1515 1516 1518 1521 1522 1524 1527 1529 1530 1532 1534 1536 1538 1540 1543 1543 1544 1546 1548 1549 1550 1552 1554 1555 1557 1558 1560 1561 1563 1564 1565 1566 1567 1569 1570 1571 1572 1573 1575 1576 1578 1579 1580 1581 1582
1505 1508 1511 1517 1526 1525 1516 1513 1511 1507 1507 1511 1511 1508 1507 1508 1511 1513 1513 1512 1512 1515 1515 1511 1507 1507 1508 1507 1508 1509 1509 1509 1510 1508 1508 1509 1510 1512 1513 1513 1514 1516 1517 1519 1520 1522 1524 1526 1528 1529 1531 1533 1535 1537 1539 1541 1542 1543 1544 1546 1547 1548 1550 1552 1553 1555 1556 1557 1559 1561 1562 1563 1564 1565 1567 1568 1569 1571 1572 1573 1574 1575 1576 1577 1579 1579
1503 1506 1511 1518 1526 1525 1517 1513 1510 1506 1511 1515 1511 1509 1509 1508 1511 1514 1515 1517 1517 1518 1526 1524 1511 1504 1506 1508 1509 1510 1510 1511 1512 1511 1511 1511 1512 1514 1514 1515 1516 1517 1518 1520 1521 1522 1524 1525 1527 1529 1530 1533 1535 1537 1537 1538 1540 1541 1542 1544 1545 1546 1548 1550 1551 1553 1554 1555 1557 1558 1560 1561 1562 1563 1565 1566 1567 1569 1570 1571 1572 1573 1574 1575 1576 1577
1503 1504 1506 1510 1517 1518 1513 1509 1509 1512 1520 1517 1507 1506 1509 1508 1510 1514 1515 1518 1518 1517 1522 1522 1510 1504 1507 1508 1509 1511 1511 1513 1514 1514 1514 1513 1514 1516 1516 1516 1517 1518 1519 1520 1521 1523 1524 1524 1527 1529 1530 1533 1534 1535 1536 1537 1538 1539 1540 1542 1543 1544 1545 1547 1548 1550 1551 1553 1555 1556 1558 1559 1560 1562 1563 1564 1565 1567 1568 1569 1570 1571 1572 1573 1574 1575
1504 1504 1504 1505 1508 1510 1508 1509 1517 1521 1519 1513 1507 1506 1509 1509 1510 1512 1512 1514 1515 1514 1517 1517 1511 1508 1510 1511 1512 1513 1513 1515 1516 1515 1515 1515 1516 1517 1518 1518 1518 1518 1519 1520 1521 1523 1524 1524 1527 1528 1529 1531 1533 1534 1536 1536 1536 1537 1538 1540 1541 1542 1543 1544 1545 1547 1548 1551 1553 1554 1555 1557 1559 1560 1561 1562 1563 1565 1566 1567 1568 1569 1570 1571 1571 1572
1503 1503 1504 1504 1506 1510 1510 1514 1523 1523 1513 1507 1508 1508 1508 1509 1510 1511 1513 1513 1513 1514 1516 1517 1513 1510 1511 1513 1514 1514 1515 1516 1516 1517 1517 1517 1517 1518 1519 1519 1519 1519 1520 1521 1523 1524 1525 1525 1526 1528 1530 1531 1533 1534 1534 1534 1535 1536 1536 1538 1539 1540 1541 1542 1543 1545 1546 1548 1550 1552 1553 1555 1556 1558 1559 1560 1561 1562 1563 1565 1566 1567 1568 1569 1569 1570
1501 1503 1504 1506 1508 1511 1511 1510 1513 1516 1513 1510 1509 1508 1508 1509 1510 1512 1515 1515 1512 1512 1515 1516 1513 1510 1511 1512 1513 1515 1515 1515 1517 1519 1520 1519 1519 1519 1519 1520 1520 1520 1520 1522 1524 1524 1523 1524 1526 1528 1530 1531 1531 1532 1532 1532 1533 1534 1535 1536 1537 1538 1539 1541 1542 1543 1544 1546 1548 1549 1551 1552 1554 1556 1557 1558 1559 1560 1561 1562 1564 1565 1566 1567 1567 1568
1500 1502 1504 1507 1508 1508 1510 1511 1511 1516 1519 1515 1509 1508 1509 1510 1510 1511 1514 1513 1511 1512 1516 1516 1513 1509 1510 1511 1512 1513 1514 1516 1521 1523 1522 1522 1522 1520 1520 1521 1521 1521 1521 1522 1523 1522 1522 1524 1526 1528 1529 1529 1529 1529 1530 1531 1532 1532 1533 1534 1535 1537 1538 1539 1540 1541 1542 1544 1546 1547 1548 1550 1552 1553 1555 1556 1557 1559 1559 1560 1561 1562 1563 1564 1565 1566
1500 1500 1501 1505 1506 1505 1510 1514 1512 1515 1519 1516 1510 1508 1510 1512 1510 1510 1514 1516 1513 1515 1519 1519 1516 1514 1512 1512 1512 1511 1512 1518 1525 1526 1524 1524 1523 1521 1521 1521 1521 1521 1521 1521 1521 1521 1522 1524 1525 1526 1526 1526 1527 1528 1529 1530 1531 1532 1532 1532 1534 1536 1538 1538 1539 1539 1541 1543 1545 1546 1546 1547 1549 1551 1553 1554 1555 1556 1558 1558 1559 1560 1561 1562 1563 1563
1501 1501 1501 1503 1503 1503 1508 1510 1505 1508 1513 1512 1510 1509 1510 1511 1510 1514 1522 1523 1516 1516 1521 1521 1520 1519 1517 1515 1514 1513 1513 1519 1525 1526 1525 1525 1524 1523 1523 1522 1522 1523 1522 1521 1522 1522 1522 1523 1524 1524 1525 1527 1528 1529 1529 1529 1530 1531 1531 1532 1533 1535 1536 1536 1537 1538 1540 1542 1544 1545 1545 1545 1546 1548 1551 1552 1552 1553 1555 1556 1557 1557 1558 1559 1560 1561
1503 1502 1502 1503 1501 1501 1507 1508 1505 1508 1512 1510 1509 1511 1511 1510 1512 1517 1525 1524 1517 1518 1522 1523 1522 1522 1521 1519 1518 1517 1519 1522 1525 1527 1527 1526 1526 1525 1525 1524 1524 1524 1524 1524 1524 1524 1524 1525 1525 1526 1527 1528 1529 1529 1529 1530 1530 1530 1530 1531 1533 1534 1534 1534 1535 1537 1539 1541 1542 1544 1544 1543 1544 1546 1549 1550 1550 1550 1551 1554 1556 1555 1555 1557 1558 1559
1506 1504 1504 1504 1502 1502 1504 1505 1506 1511 1513 1511 1511 1512 1512 1513 1516 1518 1519 1519 1520 1521 1523 1524 1524 1523 1523 1523 1523 1524 1526 1526 1527 1528 1528 1528 1528 1527 1527 1527 1526 1526 1526 1526 1526 1526 1526 1527 1527 1528 1528 1529 1529 1529 1530 1531 1531 1531 1530 1530 1532 1533 1533 1533 1534 1536 1538 1540 1541 1542 1542 1542 1543 1545 1547 1549 1548 1547 1548 1552 1554 1554 1554 1556 1556 1557
1504 1506 1506 1503 1502 1505 1507 1508 1512 1516 1515 1512 1513 1514 1515 1516 1517 1516 1516 1518 1521 1522 1523 1524 1524 1524 1524 1525 1527 1529 1530 1529 1530 1530 1530 1530 1531 1530 1530 1530 1529 1529 1529 1529 1529 1529 1529 1529 1529 1530 1530 1530 1530 1530 1531 1532 1532 1531 1531 1530 1532 1533 1533 1533 1535 1536 1537 1538 1539 1539 1540 1541 1543 1545 1546 1546 1545 1545 1547 1550 1552 1553 1553 1554 1554 1554
1504 1507 1506 1501 1502 1509 1512 1514 1516 1516 1513 1512 1513 1514 1515 1516 1516 1515 1516 1518 1519 1521 1522 1523 1524 1525 1525 1526 1528 1531 1531 1531 1532 1532 1531 1532 1533 1533 1533 1533 1532 1532 1532 1532 1532 1532 1531 1532 1532 1533 1533 1533 1532 1532 1533 1533 1533 1532 1532 1532 1533 1534 1534 1535 1537 1538 1538 1538 1539 1540 1541 1542 1543 1544 1544 1544 1544 1544 1546 1548 1551 1552 1551 1551 1551 1552
1505 1506 1506 1504 1505 1508 1510 1511 1512 1512 1512 1513 1514 1513 1515 1516 1517 1517 1517 1518 1519 1521 1522 1523 1524 1526 1527 1528 1530 1531 1532 1532 1533 1533 1533 1534 1534 1535 1535 1535 1535 1535 1535 1535 1535 1535 1535 1535 1535 1536 1536 1536 1536 1535 1535 1535 1535 1534 1534 1535 1536 1537 1537 1538 1539 1539 1539 1540 1541 1542 1542 1543 1544 1543 1543 1544 1544 1544 1546 1549 1550 1550 1549 1549 1550 1551
1505 1506 1505 1505 1507 1508 1510 1510 1510 1511 1512 1513 1514 1514 1515 1517 1517 1518 1518 1519 1520 1521 1522 1523 1524 1526 1527 1529 1530 1531 1532 1533 1533 1534 1535 1535 1536 1536 1536 1536 1536 1536 1537 1537 1538 1538 1538 1538 1538 1538 1538 1538 1538 1538 1537 1537 1536 1536 1537 1539 1539 1539 1540 1541 1541 1541 1541 1542 1543 1544 1544 1544 1544 1544 1544 1545 1545 1544 1546 1548 1548 1548 1547 1548 1548 1549
1505 1505 1504 1505 1507 1510 1512 1511 1510 1511 1513 1513 1514 1515 1516 1516 1518 1519 1519 1520 1521 1522 1523 1524 1525 1526 1528 1530 1531 1532 1533 1534 1534 1535 1536 1537 1538 1538 1537 1537 1537 1537 1538 1538 1539 1540 1540 1540 1540 1540 1540 1540 1540 1540 1540 1539 1538 1538 1540 1541 1541 1541 1542 1543 1543 1544 1544 1545 1545 1546 1546 1546 1546 1546 1547 1547 1546 1545 1546 1547 1547 1546 1546 1547 1548 1549
1503 1505 1504 1504 1507 1509 1510 1511 1512 1513 1514 1514 1514 1515 1516 1516 1518 1519 1519 1520 1521 1523 1524 1525 1526 1527 1528 1530 1531 1532 1534 1535 1536 1537 1537 1538 1539 1539 1539 1539 1539 1539 1539 1539 1540 1541 1541 1541 1541 1541 1541 1541 1541 1541 1541 1541 1541 1542 1543 1543 1543 1543 1544 1544 1545 1545 1546 1546 1547 1547 1547 1548 1548 1549 1549 1549 1548 1547 1548 1548 1548 1548 1548 1548 1549 1550
1502 1503 1503 1504 1506 1509 1510 1511 1513 1513 1514 1515 1515 1515 1516 1517 1518 1519 1520 1521 1522 1524 1525 1526 1528 1528 1529 1531 1532 1533 1534 1536 1537 1537 1538 1539 1540 1540 1540 1540 1540 1540 1541 1541 1542 1542 1542 1543 1543 1543 1543 1543 1543 1543 1543 1543 1543 1544 1544 1545 1545 1546 1546 1547 1547 1547 1547 1548 1548 1549 1549 1549 1550 1550 1550 1550 1550 1549 1549 1550 1551 1550 1550 1550 1551 1552
1501 1501 1501 1503 1505 1505 1506 1508 1510 1510 1511 1514 1515 1516 1517 1518 1518 1520 1521 1522 1523 1525 1526 1527 1529 1530 1531 1532 1533 1534 1535 1537 1538 1539 1539 1540 1540 1541 1541 1541 1542 1542 1543 1543 1544 1544 1544 1544 1545 1545 1545 1545 1545 1545 1545 1545 1545 1546 1546 1547 1547 1548 1549 1549 1549 1549 1549 1550 1550 1551 1551 1551 1552 1552 1552 1552 1552 1552 1552 1552 1552 1552 1552 1552 1552 1553
1499 1499 1500 1501 1501 1501 1501 1504 1507 1508 1508 1512 1515 1516 1517 1519 1519 1521 1522 1523 1524 1526 1527 1528 1530 1531 1532 1534 1535 1536 1537 1538 1539 1540 1540 1541 1542 1543 1543 1543 1543 1544 1544 1545 1545 1546 1546 1546 1546 1546 1547 1547 1547 1547 1547 1547 1547 1548 1548 1548 1548 1549 1550 1550 1550 1551 1551 1551 1552 1552 1552 1553 1553 1554 1554 1554 1554 1553 1553 1553 1553 1553 1553 1553 1553 1553